sat.trackr.live / text

‹ back to catalog

STARLINK-4693

NORAD 53605 · 2022-104T

PAYLOAD ACTIVE UNKNOWN

§ Identity

Operator
Country
US
Launch date
2022-08-28
Launch site
AFETR
Launch vehicle
Mass (kg)
RCS (m²)

Purposes: comms

External: N2YO · Heavens-Above · Gunter

§ Orbital elements

Epoch: 2026-05-25T04:00:03.998880Z

Period
91.49 min
Inclination
53.2170°
Eccentricity
0.0000931
Mean motion
15.74027926 rev/d
Perigee alt
346.8 km
Apogee alt
348.0 km
Semi-major
6,725.5 km
B*
4.1046e-3
RAAN
243.1718°
Arg perigee
48.7217°
Mean anomaly
178.5851°
Rev number
595

§ Raw data

STARLINK-46931 53605U 22104T   26145.16671295  .00644358  00000+0  41046-2 0  99992 53605  53.2170 243.1718 0000931  48.7217 178.5851 15.74027926  5954

JSON: /api/v1/satellites/53605 · /tle

For live sub-satellite position, see the globe view (requires WebGL).

§ Visibility from observer

Set your observer location to see the next 7 days of passes ≥ 10°. The values pass through the URL so the page stays shareable.

No JS? Fill the form by hand. The geolocation button needs JavaScript.